Regional Weather Roundup
Issued by NWS

Home | Current Version | Previous Version | Text Only | Print | Product List | Glossary On
Versions: 1 2 3 4 5 6 7 8 9 10 11 12 13 14 15 16 17 18 19 20 21 22 23 24 25 26 27 28 29 30 31 32 33 34 35 36 37 38 39 40 41 42 43 44 45 46 47 48 49 50
000
ASUS43 KMPX 150810
RWRMN
WEATHER ROUNDUP FOR MINNESOTA
NATIONAL WEATHER SERVICE TWIN CITIES/CHANHASSEN MN
200 AM CST FRI DEC 15 2017


NOTE: "FAIR" INDICATES FEW OR NO CLOUDS BELOW 12,000 FEET WITH NO
SIGNIFICANT WEATHER AND/OR OBSTRUCTIONS TO VISIBILITY. N/A MEANS
CURRENT SKY AND/OR WEATHER CONDITIONS ARE NOT AVAILABLE.

MNZ060>063-068>070-150900-
   Twin Cities Metro

CITY           SKY/WX    TMP DP  RH WIND       PRES   REMARKS
TWIN CITIES    CLOUDY    23  18  81 W9        29.95F WCI  13
ST PAUL        CLOUDY    23  16  74 W9        29.96F WCI  13
CRYSTAL        CLOUDY    22  14  71 W7        29.93F WCI  13
BLAINE         CLOUDY    23  18  80 W5        29.92F WCI  17
LAKEVILLE      FLURRIES  21  18  86 W5        29.95F WCI  15
EDEN PRAIRIE   FLURRIES  23  17  78 W5        29.94F WCI  17
SOUTH ST PAUL  CLOUDY    24  17  74 W7        29.95F WCI  15
LAKE ELMO      CLOUDY    23  18  80 W7        29.95S WCI  15
$$
MNZ001>005-007-008-013>017-022>024-027-028-150900-
   Northwest Minnesota

CITY           SKY/WX    TMP DP  RH WIND       PRES   REMARKS
BEMIDJI        FLURRIES  13   9  82 NW8       29.89S WCI   2
HALLOCK        CLOUDY    12  10  92 W3        29.96F
ROSEAU         CLOUDY    12   7  79 NW13      29.93F WCI  -3
WARROAD        FLURRIES  10   5  79 NW7       29.93S WCI   0
THIEF RVR FALL FLURRIES  13   9  84 N6        29.95F WCI   4
CROOKSTON      CLOUDY    16  14  93 N6        29.97S WCI   7
FOSSTON        CLOUDY    12  10  92 NW7       29.92F WCI   2
DETROIT LAKES  CLOUDY    19  18  93 NW6       29.93S WCI  11
MOORHEAD       CLOUDY    19  16  86 CALM      29.97S
PARK RAPIDS    CLOUDY    16  11  80 NW13G18   29.89S WCI   2
MAHNOMEN       CLOUDY    15  12  89 N8        29.93S WCI   4
$$
MNZ006-009>011-018-025>026-150900-
   North Central Minnesota

CITY           SKY/WX    TMP DP  RH WIND       PRES   REMARKS
BAUDETTE       CLOUDY    10   5  80 NW14G23   29.90S WCI  -6
FLAG ISLAND    CLOUDY     9   3  78 NW13      29.91S WCI  -7
INTL FALLS     CLOUDY     9   4  80 W9        29.87S WCI  -4
WASKISH        FLURRIES  10   7  85 NW8       29.90F WCI  -1
BIG FORK       CLOUDY    12   7  79 NW6       29.87S WCI   3
LONGVILLE      FLURRIES  14  10  85 NW6       29.89S WCI   5
GRAND RAPIDS   FLURRIES  13   8  81 NW9       29.89S WCI   1
CRANE LAKE     LGT SNOW   9   7  92 CALM      29.87S
ORR            FLURRIES  10   3  72 NW10      29.83R WCI  -3
COOK           LGT SNOW  10   7  85 W7        29.85S WCI   0
WALKER         FLURRIES  14  10  85 NW6       29.89S WCI   5
$$
MNZ012-019>021-037-150900-
   Northeast Minnesota

CITY           SKY/WX    TMP DP  RH WIND       PRES   REMARKS
DULUTH         FLURRIES  12   7  80 NW9       29.83S WCI   0
ELY            LGT SNOW   9   5  85 NW3       29.81F
HIBBING        LGT SNOW  11   7  84 NW12      29.85S FOG     WCI  -3
EVELETH        FLURRIES  12   6  76 NW7       29.85S WCI   2
DULUTH HARBOR  CLOUDY    18  10  73 W9        29.90F WCI   6
TWO HARBORS    CLEAR     12   7  79 W6        29.82S WCI   3
SILVER BAY     CLOUDY    10   7  85 CALM      29.80F
GRAND MARAIS     N/A     15   6  67 MISG      29.82R
G MARAIS ARPRT LGT SNOW   7   1  78 NW8G18    29.72F WCI  -6
$$
MNZ029>031-032-039>041-046>048-054>057-064-150900-
   West Central Minnesota

CITY           SKY/WX    TMP DP  RH WIND       PRES   REMARKS
FERGUS FALLS   CLOUDY    21  19  93 N7        29.96F WCI  13
WHEATON        CLOUDY    30  28  93 W5        29.94F WCI  25
MORRIS         LGT SNOW  28  28 100 NW3       29.91F
ALEXANDRIA     CLOUDY    23  21  92 CALM      29.91S
ELBOW LAKE     CLOUDY    24  23  96 CALM      29.92S
WADENA         CLOUDY    16  14  93 CALM      29.91S VSB 1
GLENWOOD       PTCLDY    23  21  93 W3        29.92R
APPLETON         N/A     30  28  93 NW5       29.93F WCI  25
BENSON         LGT SNOW  27  25  93 CALM      29.94F
ORTONVILLE     CLOUDY    30  27  86 W9        29.92F WCI  22
MADISON        CLOUDY    34  28  80 W7        29.94F WCI  28
WILLMAR        FLURRIES  27  25  93 CALM      29.94F
$$
MNZ033>034-036-042>043-049>051-058-059-150900-
   Central Minnesota

CITY           SKY/WX    TMP DP  RH WIND       PRES   REMARKS
ST CLOUD       CLOUDY    21  18  88 W8        29.93F WCI  11
SAUK CENTRE    CLOUDY    22  20  92 W3        29.92S
PAYNESVILLE    CLOUDY    22  22  97 CALM      29.93F
AITKIN         FLURRIES  12   9  85 NW8       29.89S WCI   1
PINE RIVER     CLOUDY    14  10  85 NW7       29.93F WCI   4
BRAINERD       CLOUDY    16  10  77 NW5       29.91F WCI   9
STAPLES        CLOUDY    16  12  86 NW6       29.91S WCI   7
LONG PRAIRIE   CLOUDY    21  19  93 SW5       29.92F WCI  15
LITTLE FALLS   CLOUDY    19  12  73 NW5       29.93F WCI  13
LITCHFIELD     CLOUDY    25  21  86 CALM      29.93F
BUFFALO        CLOUDY    23  19  85 SW5       29.95F WCI  16
MAPLE LAKE     CLOUDY    24  21  89 W3        29.94F
HUTCHINSON     CLOUDY    24  22  91 CALM      29.95F
$$
MNZ037-044-045-052-053-150900-
   East Central Minnesota

CITY           SKY/WX    TMP DP  RH WIND       PRES   REMARKS
PRINCETON      CLOUDY    21  16  79 W6        29.92F WCI  14
MORA           CLOUDY    18  10  73 NW8       29.93S WCI   7
CAMBRIDGE      CLOUDY    21  12  68 W6        29.93S WCI  14
RUSH CITY      CLOUDY    17  12  80 NW5       29.92S WCI  10
MOOSE LAKE     FLURRIES  16   9  73 W6        29.87F WCI   7
HINCKLEY       CLOUDY    18  10  73 NW10      29.92R WCI   6
CLOQUET        FLURRIES  12   7  79 W9        29.85F WCI   0
MCGREGOR       CLOUDY    16  10  79 NW6       29.89F WCI   7
$$
MNZ071>073-080-081-089-090-097-098-150900-
   Southwest Minnesota

CITY           SKY/WX    TMP DP  RH WIND       PRES   REMARKS
MONTEVIDEO     LGT SNOW  28  27  93 W7        29.94F WCI  21
GRANITE FALLS  FLURRIES  31  28  91 SW12      29.96F WCI  21
CANBY          CLOUDY    32  28  84 SW13      29.95F WCI  22
MARSHALL       FLURRIES  28  25  88 W10       29.96F WCI  19
REDWOOD FALLS  CLOUDY    29  24  82 W9        29.95F WCI  20
OLIVIA         FLURRIES  28  27  93 W7        29.93F WCI  21
PIPESTONE      FLURRIES  27  25  93 W10       29.97S WCI  17
WINDOM         LGT SNOW  27  16  63 SW9       29.96F WCI  17
WORTHINGTON    FLURRIES  26  23  88 SW12      29.98F WCI  16
JACKSON        FLURRIES  28  23  80 MISG      29.98F
SLAYTON        MIX PCPN  27  25  92 W13       29.96F WCI  16
$$
MNZ065>067-074>077-082>085-091>093-150900-
   South Central Minnesota

CITY           SKY/WX    TMP DP  RH WIND       PRES   REMARKS
MANKATO        FLURRIES  24  21  88 W6        29.97F WCI  17
NEW ULM        MOCLDY    23  19  86 W5        29.96F WCI  17
ST JAMES       CLOUDY    27  21  80 SW7       29.98F WCI  19
FAIRMONT       CLOUDY    26  22  84 W13       29.98F WCI  15
GLENCOE        CLOUDY    25  22  91 CALM      29.95F
FARIBAULT      CLOUDY    23  19  86 W6        29.96F WCI  16
OWATONNA       CLOUDY    23  19  86 W8        29.95F WCI  14
WASECA         CLOUDY    23  21  93 CALM      29.97F
ALBERT LEA     FLURRIES  25  19  80 W6        29.96F WCI  18
$$
MNZ078>079-086>088-094>096-150900-
   Southeast Minnesota

CITY           SKY/WX    TMP DP  RH WIND       PRES   REMARKS
ROCHESTER      CLOUDY    22  18  85 W15       29.93S WCI   9
RED WING       CLOUDY    25  12  58 W9        29.94S WCI  15
STANTON        CLOUDY    24  18  77 W9        29.95S WCI  14
DODGE CENTER   CLOUDY    21  18  86 W12       29.94S WCI   9
WINONA           N/A     27  19  74 NW12G18   29.94F WCI  16
PRESTON        CLOUDY    22  17  81 W12       29.94S WCI  10
$$
ABBREVIATIONS USED IN REMARKS
   TC - TEMPERATURES IN CELSIUS
  WCI - WIND CHILL INDEX
   HX - HEAT INDEX
  VSB - VISIBILITY
$$



USA.gov is the U.S. government's official web portal to all federal, state and local government web resources and services.